Regional Weather Roundup
Issued by NWS Newport/Morehead, NC

Current Version | Previous Version | Graphics & Text | Print | Product List | Glossary On
Versions: 1 2 3 4 5 6 7 8 9 10 11 12 13 14 15 16 17 18 19 20 21 22 23 24 25 26 27 28 29 30 31 32 33 34 35 36 37 38 39 40 41 42 43 44 45 46 47 48 49 50
000 ASUS42 KMHX 160222 RWRMHX WEATHER ROUNDUP FOR EASTERN NORTH CAROLINA NATIONAL WEATHER SERVICE NEWPORT/MOREHEAD CITY NC 1000 PM EDT MON SEP 15 2014 NOTE: "FAIR" INDICATES FEW OR NO CLOUDS BELOW 12,000 FEET WITH NO SIGNIFICANT WEATHER AND/OR OBSTRUCTIONS TO VISIBILITY NCZ015>017-031-032-045>047-102-103-160300- NORTH COAST CITY SKY/WX TMP DP RH WIND PRES REMARKS EDENTON CLOUDY 70 63 78 SE3 30.14S ELIZABETH CITY CLOUDY 69 61 75 E3 30.14S KITTY HAWK CLOUDY 71 60 67 E3 30.13S MANTEO CLOUDY 70 60 70 CALM 30.15R $$ NCZ045>047-081-094-103-104-160300- CENTRAL COAST CITY SKY/WX TMP DP RH WIND PRES REMARKS FRISCO PTCLDY 68 63 84 NE5 30.13S SWANQUARTER N/A 70 N/A N/A NE3 30.09S $$ NCZ095-097-098-100-101-160300- SOUTHERN COAST CITY SKY/WX TMP DP RH WIND PRES REMARKS BEAUFORT CLOUDY 72 66 81 NE6 30.14R CEDAR ISLAND N/A 73 N/A N/A E5 30.18S JACKSONVILLE CLOUDY 73 68 84 CALM 30.14S NEWPORT NOT AVBL PINEY ISLAND CLOUDY 75 65 70 CALM 30.14R WILMINGTON CLOUDY 72 68 87 CALM 30.14S $$ NCZ011>013-027>030-043-044-078>080-089-090>093-098-160300- COASTAL PLAIN CITY SKY/WX TMP DP RH WIND PRES REMARKS AHOSKIE CLOUDY 67 65 92 CALM 30.14S CLINTON CLOUDY 71 70 96 CALM 30.15R ELIZABETHTOWN CLOUDY 73 70 90 CALM 30.15R GOLDSBORO MOCLDY 72 71 97 S2 30.12F GREENVILLE CLOUDY 72 68 88 CALM 30.15F HAVELOCK CLOUDY 72 68 87 CALM 30.15S KENANSVILLE CLOUDY 70 68 94 CALM 30.15S KINSTON CLOUDY 72 68 87 S3 30.15S NEW BERN CLOUDY 73 70 88 CALM 30.16R RICHLANDS CLOUDY 72 66 83 CALM 30.15S ROANOKE RAPIDS NOT AVBL ROCKY MOUNT CLOUDY 69 67 93 CALM 30.14S WASHINGTON CLOUDY 70 67 89 CALM 30.14F WHITEVILLE CLOUDY 72 70 93 CALM 30.14S FOG $$ AMZ130-135-150-152-154-156-158-170-250-252-270-ANZ085-086-088-633-658-670-160300- MARINE OBSERVATIONS STATION/POSITION TIME TEMP WIND PRES WAVE SWELL AIR SEA DIR/SP/G HT/PER HT/PER (UTC) (F) (DEG/KT/KT) (MB) (FT/S) (FT/S) CHESAPEAKE LIGHT 0200 69 150/ 6/ 7 1021.0 BUOY 44014 0200 71 79 40/ 6/ 8 1020.1 2/ 8 2/ 8 DUCK 0200 71 76 100/ 4/ 5 1019.9 2E DUCK 0200 N/A 2/ 8 OREGON INLET 0200 71 74 50/ 4/ 6 1020.6 BUOY 44095 0200 76 N/A 3/ 7 20E OREGON INLET NOT AVBL HATTERAS CG 0200 72 78 40/ 5/ 7 1020.9 DIAMOND BUOY 0200 73 350/ 10/ 12 1020.1 3/ 8 3/ 8 CAPE LOOKOUT 0200 74 10/ 5/ 5 1020.4 BEAUFORT LAB 0200 72 79 50/ 4/ 5 1020.1 30 SE NEW RIVER 0200 77 82 30/ 4/ 6 1020.7 2/ 9 2/ 9 5 SE WRIGHTSVILL 0200 73 81 10/ 8/ 10 N/A BUOY 41002 0104 80 83 300/ 6/ 8 1020.1 3/ 6 3/ 6 BUOY 41004 0200 80 83 180/ 2/ 2 1019.8 2/ 5 2/ 5 $$

USA.gov is the U.S. government's official web portal to all federal, state and local government web resources and services.